TimeCDT,TemperatureF,Dew PointF,Humidity,Sea Level PressureIn,VisibilityMPH,Wind Direction,Wind SpeedMPH,Gust SpeedMPH,PrecipitationIn,Events,Conditions,WindDirDegrees,DateUTC
12:53 AM,75.9,72.0,87,29.67,9.0,SSE,23.0,35.7,N/A,,Overcast,150,2013-04-10 05:53:00
1:53 AM,75.0,72.0,90,29.66,9.0,SSE,24.2,31.1,N/A,,Overcast,150,2013-04-10 06:53:00
2:53 AM,75.0,72.0,90,29.64,9.0,SE,21.9,28.8,N/A,,Overcast,140,2013-04-10 07:53:00
3:53 AM,73.9,71.1,91,29.61,9.0,SE,18.4,33.4,N/A,,Overcast,140,2013-04-10 08:53:00
4:41 AM,73.4,71.6,94,29.59,9.0,SE,24.2,31.1,N/A,,Overcast,140,2013-04-10 09:41:00
4:53 AM,73.9,71.1,91,29.60,9.0,SSE,21.9,-,N/A,,Overcast,150,2013-04-10 09:53:00
5:53 AM,73.9,71.1,91,29.61,10.0,SSE,18.4,24.2,N/A,,Mostly Cloudy,150,2013-04-10 10:53:00
6:09 AM,73.4,71.6,94,29.62,10.0,SSE,16.1,24.2,N/A,,Scattered Clouds,150,2013-04-10 11:09:00
6:53 AM,73.9,71.1,91,29.62,10.0,SSE,19.6,26.5,N/A,,Partly Cloudy,150,2013-04-10 11:53:00
7:12 AM,73.4,71.6,94,29.63,10.0,SSE,17.3,-,N/A,,Mostly Cloudy,150,2013-04-10 12:12:00
7:41 AM,73.4,71.6,94,29.62,8.0,SSE,19.6,28.8,N/A,,Scattered Clouds,160,2013-04-10 12:41:00
7:53 AM,73.9,71.1,91,29.62,9.0,SSE,19.6,-,N/A,,Clear,160,2013-04-10 12:53:00
8:53 AM,77.0,71.1,82,29.65,10.0,SSE,20.7,31.1,N/A,,Clear,160,2013-04-10 13:53:00
9:53 AM,82.0,71.1,69,29.67,10.0,South,23.0,31.1,N/A,,Clear,170,2013-04-10 14:53:00
10:53 AM,84.9,71.1,63,29.68,10.0,South,28.8,38.0,N/A,,Partly Cloudy,170,2013-04-10 15:53:00
11:53 AM,88.0,71.1,57,29.66,10.0,South,26.5,36.8,N/A,,Clear,180,2013-04-10 16:53:00
12:53 PM,89.1,71.1,55,29.68,10.0,South,19.6,32.2,N/A,,Mostly Cloudy,180,2013-04-10 17:53:00
1:37 PM,89.6,71.6,55,29.67,10.0,South,18.4,24.2,N/A,,Overcast,180,2013-04-10 18:37:00
1:53 PM,91.0,71.1,52,29.66,10.0,South,13.8,-,N/A,,Mostly Cloudy,190,2013-04-10 18:53:00
2:53 PM,91.0,71.1,52,29.64,10.0,SSW,8.1,19.6,N/A,,Mostly Cloudy,210,2013-04-10 19:53:00
3:53 PM,91.0,69.1,48,29.61,10.0,WSW,4.6,-,N/A,,Partly Cloudy,250,2013-04-10 20:53:00
4:39 PM,87.8,71.6,58,29.60,10.0,SSE,19.6,-,N/A,,Scattered Clouds,150,2013-04-10 21:39:00
4:53 PM,87.1,72.0,61,29.59,10.0,SE,18.4,25.3,N/A,,Mostly Cloudy,140,2013-04-10 21:53:00
5:44 PM,84.2,71.6,66,29.60,10.0,SSE,16.1,-,N/A,,Overcast,150,2013-04-10 22:44:00
5:53 PM,84.9,71.1,63,29.60,10.0,SSE,19.6,-,N/A,,Mostly Cloudy,150,2013-04-10 22:53:00
6:53 PM,81.0,71.1,72,29.61,9.0,SSE,12.7,-,N/A,,Overcast,150,2013-04-10 23:53:00
7:53 PM,78.1,72.0,81,29.64,9.0,ESE,5.8,-,N/A,,Overcast,120,2013-04-11 00:53:00
8:11 PM,71.6,64.4,78,29.67,9.0,NNE,11.5,24.2,N/A,,Overcast,20,2013-04-11 01:11:00
8:20 PM,69.8,64.4,83,29.67,9.0,NNE,17.3,24.2,N/A,,Overcast,20,2013-04-11 01:20:00
8:29 PM,69.8,64.4,83,29.68,9.0,North,15.0,21.9,N/A,,Overcast,10,2013-04-11 01:29:00
8:53 PM,66.0,64.0,93,29.69,6.0,North,12.7,23.0,0.00,Rain,Light Rain,360,2013-04-11 01:53:00
9:53 PM,64.0,64.0,100,29.73,6.0,North,15.0,21.9,0.01,Rain,Light Rain,360,2013-04-11 02:53:00
10:53 PM,64.0,62.1,93,29.74,10.0,North,17.3,24.2,0.00,,Overcast,360,2013-04-11 03:53:00
11:53 PM,63.0,63.0,100,29.76,10.0,North,11.5,21.9,N/A,,Overcast,360,2013-04-11 04:53:00